Skagway, AK

3:20 AM AKDT on September 21, 2017 (GMT -0800)
Skagway

Weather History for PAGY - March, 2013

Change the Weather History Date:

Tuesday, March 12, 2013

  Actual Average Record
Temperature  
Mean Temperature 28 °F -  
Max Temperature 34 °F 33 °F 58 °F (1984)
Min Temperature 19 °F 24 °F 6 °F (2003)
Degree Days  
Heating Degree Days 38    
Moisture  
Dew Point 3 °F    
Average Humidity 36    
Maximum Humidity 50    
Minimum Humidity 26    
Precipitation  
Precipitation 0.00 in - - ()
Sea Level Pressure  
Sea Level Pressure 30.15 in    
Wind  
Wind Speed 13 mph (NNE)    
Max Wind Speed 24 mph    
Max Gust Speed 36 mph    
Visibility 10 miles    
Events      
Averages and records for this station are not official NWS values.
T = Trace of Precipitation, MM = Missing Value Source: NWS Daily Summary

Daily Weather History Graph

Daily Weather History Graph

Search for Another Location

Airport or City:

Trip Planner

Search our weather history database for the weather conditions in past years. The results will help you decide how hot, cold, wet, or windy it might be!

Date:

Astronomy

Mar. 12, 2013 Rise Set
Actual Time 7:25 AM AKDT 6:57 PM AKDT
Civil Twilight 6:44 AM AKDT 7:38 PM AKDT
Nautical Twilight 5:56 AM AKDT 8:26 PM AKDT
Astronomical Twilight 5:06 AM AKDT 9:17 PM AKDT
Moon 7:12 AM AKDT (3/12) 8:52 PM AKDT (3/12)
Length of Visible Light 12h 53m
Length of Day
11h 32m
New Moon, 1% of the Moon is Illuminated
Mar 12
New Moon
Mar 19
First Quarter
Mar 27
Full
Apr 2
Last Quarter
Apr 10
New

Hourly Weather History & Observations

Time (AKDT) Temp. Windchill Dew Point Humidity Pressure Visibility Wind Dir Wind Speed Gust Speed Precip Events Conditions
12:53 AM 34.0 °F 26.6 °F 17.1 °F 50% 30.11 in 10.0 mi North 9.2 mph 17.3 mph N/A   Overcast
1:53 AM 33.1 °F 24.4 °F 16.0 °F 50% 30.14 in 10.0 mi NNE 11.5 mph - N/A   Overcast
2:53 AM 32.0 °F 23.6 °F 14.0 °F 48% 30.14 in 10.0 mi NNE 10.4 mph 17.3 mph N/A   Overcast
3:53 AM 32.0 °F 22.1 °F 12.0 °F 44% 30.14 in 10.0 mi NNE 13.8 mph 25.3 mph N/A   Overcast
4:53 AM 30.0 °F 19.1 °F 12.0 °F 47% 30.15 in 10.0 mi NNE 15.0 mph - N/A   Mostly Cloudy
5:53 AM 28.9 °F 19.2 °F 10.0 °F 45% 30.15 in 10.0 mi NNE 11.5 mph 20.7 mph N/A   Partly Cloudy
6:53 AM 28.0 °F 17.5 °F 8.1 °F 43% 30.17 in 10.0 mi NNE 12.7 mph 18.4 mph N/A   Partly Cloudy
7:53 AM 27.0 °F 16.1 °F 7.0 °F 43% 30.17 in 10.0 mi NNE 12.7 mph - N/A   Clear
8:53 AM 26.1 °F 14.5 °F 6.1 °F 43% 30.17 in 10.0 mi NNE 13.8 mph 21.9 mph N/A   Mostly Cloudy
9:53 AM 27.0 °F 15.6 °F 3.9 °F 37% 30.17 in 10.0 mi NNE 13.8 mph 19.6 mph N/A   Partly Cloudy
10:53 AM 28.0 °F 16.5 °F 3.0 °F 34% 30.17 in 10.0 mi NE 15.0 mph 28.8 mph N/A   Scattered Clouds
11:53 AM 28.0 °F 13.9 °F 1.9 °F 33% 30.16 in 8.0 mi NE 23.0 mph 29.9 mph N/A   Clear
12:53 PM 28.0 °F 16.1 °F 1.0 °F 31% 30.17 in 10.0 mi NNE 16.1 mph 25.3 mph N/A   Partly Cloudy
1:53 PM 28.9 °F 16.5 °F -0.9 °F 28% 30.16 in 10.0 mi NE 18.4 mph 34.5 mph N/A   Partly Cloudy
2:53 PM 28.9 °F 14.8 °F -2.0 °F 26% 30.14 in 10.0 mi NNE 24.2 mph 35.7 mph N/A   Scattered Clouds
3:53 PM 28.9 °F 15.4 °F -0.9 °F 28% 30.13 in 10.0 mi NNE 21.9 mph 33.4 mph N/A   Mostly Cloudy
4:53 PM 27.0 °F 15.6 °F -2.0 °F 29% 30.12 in 10.0 mi NE 13.8 mph 32.2 mph N/A   Mostly Cloudy
5:53 PM 26.1 °F 14.0 °F -4.0 °F 27% 30.12 in 10.0 mi NNE 15.0 mph 31.1 mph N/A   Mostly Cloudy
6:53 PM 25.0 °F 11.3 °F -5.1 °F 27% 30.12 in 10.0 mi NE 18.4 mph 25.3 mph N/A   Overcast
7:53 PM 23.0 °F 9.6 °F -4.0 °F 31% 30.13 in 10.0 mi NE 16.1 mph 27.6 mph N/A   Overcast
8:53 PM 21.0 °F 7.6 °F -4.0 °F 33% 30.14 in 10.0 mi NNE 15.0 mph 23.0 mph N/A   Mostly Cloudy
9:53 PM 21.0 °F 10.6 °F -5.1 °F 32% 30.14 in 10.0 mi North 9.2 mph 18.4 mph N/A   Overcast
10:53 PM 21.0 °F 11.4 °F -5.1 °F 32% 30.14 in 10.0 mi NNE 8.1 mph - N/A   Clear
11:53 PM 19.9 °F 8.6 °F -5.1 °F 33% 30.14 in 10.0 mi North 10.4 mph - N/A   Overcast